User: anonymous   Login
Location: ???????
(55.4362°N, 38.1183°E)
Time: 20:31:33
(UTC+00:00)
Language:

KKS-1 - Orbit

View from above orbital plane
View from above orbital plane
View from above satellite
View from above satellite

Ground track
Ground track

The orbit data is extracted from the following two-line orbital elements,

1 33499U 09002H   21339.13725886  .00000253  00000-0  44848-4 0  9999
2 33499  98.2422 212.6626 0008303 209.6157 150.4582 14.75748562692018
Epoch (UTC): 05 December 2021 03:17:39
Eccentricity: 0.0008303
inclination: 98.2422°
perigee height: 637 km
apogee height: 648 km
right ascension of ascending node: 212.6626°
argument of perigee: 209.6157°
revolutions per day: 14.75748562
mean anomaly at epoch: 150.4582°
orbit number at epoch: 69201

The dashed part of the orbit path shows where the satellite is in the earth's shadow,  

DLR